RYR1VR LFML-LEPA

Flight info

Callsign RYR1VR
Flight time 0h 57m
Altitude 37000
Route VATIR N852 VERSO L129 LUNIK
Aircraft A320/M-SDE3FGHIRWY/LB1

Departure

Time 2026-05-06 13:39
Airport Marseille Provence Airport (LFML)

Arrival

Time 2026-05-06 14:36
Airport Palma de Mallorca Airport (LEPA)
Time Latitude Longitude Altitude Speed Heading
2026-05-06 13:24 43.44106 5.22044 38 ft 0 kts 28°
2026-05-06 13:34 43.44091 5.22035 35 ft 4 kts 31°
2026-05-06 13:34 43.44070 5.22014 35 ft 4 kts 43°
2026-05-06 13:34 43.44053 5.21986 37 ft 4 kts 69°
2026-05-06 13:34 43.44051 5.21953 37 ft 3 kts 127°
2026-05-06 13:35 43.44054 5.21948 36 ft 0 kts 134°
2026-05-06 13:36 43.44052 5.21950 37 ft 2 kts 134°
2026-05-06 13:36 43.44016 5.22001 37 ft 13 kts 134°
2026-05-06 13:37 43.43931 5.22121 37 ft 22 kts 135°
2026-05-06 13:37 43.43792 5.22227 36 ft 19 kts 162°
2026-05-06 13:37 43.43721 5.22174 35 ft 15 kts 224°
2026-05-06 13:37 43.43621 5.22127 37 ft 19 kts 147°
2026-05-06 13:38 43.43490 5.22227 37 ft 24 kts 152°
2026-05-06 13:38 43.43347 5.22245 37 ft 16 kts 237°
2026-05-06 13:38 43.43332 5.22079 37 ft 20 kts 270°
2026-05-06 13:38 43.43364 5.21944 34 ft 13 kts 312°
2026-05-06 13:39 43.43621 5.21571 36 ft 99 kts 314°
2026-05-06 13:39 43.44245 5.20620 86 ft 161 kts 306°
2026-05-06 13:39 43.45070 5.19515 917 ft 165 kts 310°
2026-05-06 13:39 43.45864 5.18345 1857 ft 171 kts 308°
2026-05-06 13:40 43.46707 5.17109 2617 ft 189 kts 310°
2026-05-06 13:40 43.47644 5.15682 3320 ft 210 kts 302°
2026-05-06 13:40 43.48005 5.13661 3980 ft 235 kts 262°
2026-05-06 13:40 43.47259 5.11588 4889 ft 256 kts 226°
2026-05-06 13:41 43.45696 5.10333 5868 ft 267 kts 202°
2026-05-06 13:41 43.43874 5.09686 6781 ft 273 kts 194°
2026-05-06 13:41 43.42630 5.09389 7390 ft 275 kts 192°
2026-05-06 13:41 43.40091 5.08816 8585 ft 279 kts 193°
2026-05-06 13:42 43.38824 5.08494 9180 ft 280 kts 195°
2026-05-06 13:42 43.36906 5.07966 10035 ft 283 kts 195°
2026-05-06 13:42 43.34933 5.07391 10666 ft 302 kts 195°
2026-05-06 13:42 43.32795 5.06730 11187 ft 327 kts 196°
2026-05-06 13:43 43.30496 5.05991 11649 ft 352 kts 196°
2026-05-06 13:43 43.28030 5.05181 12041 ft 376 kts 196°
2026-05-06 13:43 43.25428 5.04321 12767 ft 389 kts 196°
2026-05-06 13:43 43.22784 5.03405 13757 ft 395 kts 200°
2026-05-06 13:44 43.20329 5.01721 14668 ft 397 kts 218°
2026-05-06 13:44 43.18361 4.99085 15628 ft 398 kts 232°
2026-05-06 13:44 43.16603 4.96139 16616 ft 401 kts 232°
2026-05-06 13:44 43.14838 4.93162 17380 ft 404 kts 232°
2026-05-06 13:45 43.13066 4.90172 17917 ft 406 kts 232°
2026-05-06 13:45 43.09473 4.84139 18914 ft 410 kts 232°
2026-05-06 13:45 43.07668 4.81123 19447 ft 409 kts 232°
2026-05-06 13:46 43.05746 4.78252 19971 ft 411 kts 223°
2026-05-06 13:46 43.03443 4.76012 20467 ft 414 kts 212°
2026-05-06 13:46 43.00894 4.74078 20958 ft 414 kts 212°
2026-05-06 13:46 42.98412 4.72207 21405 ft 413 kts 212°
2026-05-06 13:47 42.95895 4.70313 21833 ft 413 kts 212°
2026-05-06 13:47 42.93381 4.68417 22247 ft 413 kts 212°
2026-05-06 13:47 42.90868 4.66515 22650 ft 413 kts 212°
2026-05-06 13:47 42.88359 4.64615 23034 ft 413 kts 212°
2026-05-06 13:48 42.85844 4.62712 23400 ft 413 kts 212°
2026-05-06 13:48 42.83331 4.60812 23713 ft 414 kts 212°
2026-05-06 13:48 42.80809 4.58906 23981 ft 415 kts 212°
2026-05-06 13:48 42.78276 4.56995 24228 ft 416 kts 212°
2026-05-06 13:49 42.75737 4.55085 24463 ft 418 kts 212°
2026-05-06 13:49 42.73190 4.53174 24678 ft 419 kts 212°
2026-05-06 13:49 42.70632 4.51259 24884 ft 420 kts 212°
2026-05-06 13:49 42.68067 4.49341 25077 ft 421 kts 212°
2026-05-06 13:50 42.65494 4.47417 25251 ft 422 kts 212°
2026-05-06 13:50 42.62953 4.45516 25415 ft 423 kts 212°
2026-05-06 13:50 42.60372 4.43583 25567 ft 424 kts 212°
2026-05-06 13:50 42.57784 4.41645 25700 ft 425 kts 212°
2026-05-06 13:51 42.55189 4.39703 25843 ft 426 kts 212°
2026-05-06 13:51 42.52590 4.37759 25968 ft 427 kts 212°
2026-05-06 13:51 42.49986 4.35816 26113 ft 427 kts 212°
2026-05-06 13:51 42.47381 4.33878 26277 ft 427 kts 212°
2026-05-06 13:52 42.44780 4.31943 26455 ft 426 kts 212°
2026-05-06 13:52 42.42183 4.30015 26630 ft 426 kts 212°
2026-05-06 13:52 42.39584 4.28085 26811 ft 426 kts 212°
2026-05-06 13:52 42.36987 4.26161 26993 ft 425 kts 212°
2026-05-06 13:53 42.34397 4.24242 27194 ft 425 kts 212°
2026-05-06 13:53 42.31811 4.22327 27391 ft 424 kts 212°
2026-05-06 13:53 42.29223 4.20412 27604 ft 424 kts 212°
2026-05-06 13:53 42.26638 4.18500 27787 ft 423 kts 212°
2026-05-06 13:54 42.24092 4.16620 27997 ft 423 kts 212°
2026-05-06 13:54 42.21509 4.14716 28217 ft 423 kts 212°
2026-05-06 13:54 42.18928 4.12818 28441 ft 422 kts 212°
2026-05-06 13:54 42.16353 4.10926 28664 ft 422 kts 212°
2026-05-06 13:55 42.13778 4.09031 28893 ft 421 kts 212°
2026-05-06 13:55 42.11211 4.07138 29132 ft 421 kts 212°
2026-05-06 13:55 42.08647 4.05250 29376 ft 420 kts 212°
2026-05-06 13:55 42.06081 4.03367 29624 ft 419 kts 212°
2026-05-06 13:56 42.03523 4.01493 29888 ft 419 kts 212°
2026-05-06 13:56 42.00961 3.99623 30114 ft 418 kts 212°
2026-05-06 13:56 41.98405 3.97760 30346 ft 418 kts 212°
2026-05-06 13:56 41.95856 3.95897 30571 ft 417 kts 212°
2026-05-06 13:57 41.93269 3.94116 30774 ft 420 kts 207°
2026-05-06 13:57 41.90476 3.92920 31000 ft 426 kts 197°
2026-05-06 13:57 41.87588 3.92230 31208 ft 427 kts 195°
2026-05-06 13:57 41.84658 3.91560 31430 ft 427 kts 195°
2026-05-06 13:58 41.81731 3.90891 31652 ft 427 kts 195°
2026-05-06 13:58 41.78804 3.90221 31890 ft 426 kts 195°
2026-05-06 13:58 41.75881 3.89553 32131 ft 426 kts 195°
2026-05-06 13:58 41.72966 3.88885 32371 ft 425 kts 195°
2026-05-06 13:59 41.70053 3.88217 32614 ft 424 kts 195°
2026-05-06 13:59 41.67145 3.87548 32860 ft 424 kts 195°
2026-05-06 13:59 41.64240 3.86878 33102 ft 423 kts 195°
2026-05-06 13:59 41.61340 3.86212 33356 ft 423 kts 195°
2026-05-06 14:00 41.58446 3.85546 33608 ft 422 kts 195°
2026-05-06 14:00 41.55553 3.84879 33866 ft 421 kts 195°
2026-05-06 14:00 41.52667 3.84215 34098 ft 421 kts 195°
2026-05-06 14:00 41.49782 3.83553 34309 ft 421 kts 195°
2026-05-06 14:01 41.46937 3.82899 34508 ft 421 kts 195°
2026-05-06 14:01 41.44049 3.82240 34717 ft 421 kts 195°
2026-05-06 14:01 41.41162 3.81584 34933 ft 421 kts 195°
2026-05-06 14:01 41.38273 3.80927 35156 ft 421 kts 195°
2026-05-06 14:02 41.35382 3.80268 35366 ft 421 kts 195°
2026-05-06 14:02 41.32490 3.79609 35577 ft 422 kts 195°
2026-05-06 14:02 41.29602 3.78951 35780 ft 422 kts 195°
2026-05-06 14:02 41.26707 3.78290 35984 ft 422 kts 195°
2026-05-06 14:03 41.23814 3.77631 36178 ft 422 kts 195°
2026-05-06 14:03 41.20921 3.76974 36369 ft 422 kts 195°
2026-05-06 14:03 41.18023 3.76317 36571 ft 422 kts 195°
2026-05-06 14:03 41.15158 3.75512 36731 ft 419 kts 201°
2026-05-06 14:04 41.12431 3.74219 36902 ft 416 kts 206°
2026-05-06 14:04 41.09734 3.72813 36953 ft 417 kts 206°
2026-05-06 14:04 41.04329 3.70027 36957 ft 416 kts 205°
2026-05-06 14:05 40.98962 3.67273 36961 ft 417 kts 206°
2026-05-06 14:05 40.93557 3.64498 36958 ft 417 kts 206°
2026-05-06 14:06 40.88149 3.61725 36961 ft 417 kts 206°
2026-05-06 14:06 40.82740 3.58958 36963 ft 417 kts 206°
2026-05-06 14:07 40.77320 3.56187 36966 ft 418 kts 206°
2026-05-06 14:07 40.71892 3.53422 36973 ft 419 kts 206°
2026-05-06 14:08 40.66462 3.50651 36974 ft 419 kts 206°
2026-05-06 14:08 40.61064 3.47899 36974 ft 419 kts 206°
2026-05-06 14:09 40.55622 3.45136 36974 ft 419 kts 206°
2026-05-06 14:09 40.50176 3.42385 36661 ft 420 kts 206°
2026-05-06 14:10 40.47439 3.41002 35810 ft 420 kts 206°
2026-05-06 14:10 40.44650 3.39854 35106 ft 422 kts 197°
2026-05-06 14:10 40.41713 3.39390 34347 ft 429 kts 187°
2026-05-06 14:10 40.38716 3.39513 33467 ft 432 kts 184°
2026-05-06 14:11 40.35707 3.39694 32446 ft 434 kts 184°
2026-05-06 14:11 40.32678 3.39877 31373 ft 437 kts 184°
2026-05-06 14:11 40.29630 3.40059 30271 ft 441 kts 184°
2026-05-06 14:11 40.26554 3.40238 28973 ft 445 kts 183°
2026-05-06 14:12 40.23449 3.40415 28040 ft 448 kts 183°
2026-05-06 14:12 40.20314 3.40592 27542 ft 453 kts 183°
2026-05-06 14:12 40.17153 3.40771 26915 ft 456 kts 183°
2026-05-06 14:12 40.13980 3.40950 26308 ft 456 kts 182°
2026-05-06 14:13 40.10818 3.41131 25703 ft 454 kts 182°
2026-05-06 14:13 40.07713 3.41310 25165 ft 451 kts 182°
2026-05-06 14:13 40.04591 3.41488 24606 ft 448 kts 182°
2026-05-06 14:13 40.01444 3.41665 24056 ft 445 kts 182°
2026-05-06 14:14 39.98404 3.41834 23516 ft 442 kts 182°
2026-05-06 14:14 39.95344 3.42002 22919 ft 439 kts 182°
2026-05-06 14:14 39.92302 3.42171 22376 ft 436 kts 182°
2026-05-06 14:14 39.89283 3.42337 21822 ft 433 kts 182°
2026-05-06 14:15 39.86281 3.42504 21244 ft 430 kts 182°
2026-05-06 14:15 39.83298 3.42675 20680 ft 428 kts 182°
2026-05-06 14:15 39.80334 3.42846 20094 ft 425 kts 182°
2026-05-06 14:15 39.77390 3.43016 19505 ft 423 kts 181°
2026-05-06 14:16 39.74466 3.43113 18911 ft 417 kts 187°
2026-05-06 14:16 39.71686 3.42317 18331 ft 405 kts 205°
2026-05-06 14:16 39.69320 3.40432 17704 ft 397 kts 223°
2026-05-06 14:16 39.67577 3.37701 17127 ft 392 kts 240°
2026-05-06 14:17 39.66331 3.34558 16558 ft 391 kts 244°
2026-05-06 14:17 39.65123 3.31409 15990 ft 388 kts 244°
2026-05-06 14:17 39.63926 3.28282 15713 ft 387 kts 244°
2026-05-06 14:17 39.62728 3.25156 15615 ft 388 kts 244°
2026-05-06 14:18 39.61523 3.22027 15267 ft 388 kts 244°
2026-05-06 14:18 39.60314 3.18903 14578 ft 388 kts 244°
2026-05-06 14:18 39.59094 3.15760 13985 ft 391 kts 244°
2026-05-06 14:18 39.57888 3.12651 13349 ft 390 kts 244°
2026-05-06 14:19 39.56675 3.09518 12745 ft 388 kts 244°
2026-05-06 14:19 39.55467 3.06402 12157 ft 386 kts 244°
2026-05-06 14:19 39.54261 3.03303 11555 ft 384 kts 244°
2026-05-06 14:19 39.53057 3.00224 10962 ft 382 kts 243°
2026-05-06 14:20 39.51860 2.97160 10376 ft 380 kts 244°
2026-05-06 14:20 39.50671 2.94113 9788 ft 378 kts 244°
2026-05-06 14:20 39.49487 2.91082 9172 ft 376 kts 244°
2026-05-06 14:20 39.48307 2.88062 8590 ft 375 kts 244°
2026-05-06 14:21 39.47133 2.85060 8022 ft 373 kts 244°
2026-05-06 14:21 39.45965 2.82081 7450 ft 370 kts 243°
2026-05-06 14:21 39.44804 2.79116 6881 ft 368 kts 243°
2026-05-06 14:21 39.43716 2.76129 6308 ft 366 kts 251°
2026-05-06 14:22 39.43237 2.72919 5714 ft 364 kts 263°
2026-05-06 14:22 39.42940 2.69680 5230 ft 359 kts 263°
2026-05-06 14:22 39.42665 2.66594 4970 ft 329 kts 263°
2026-05-06 14:22 39.42417 2.63819 4730 ft 302 kts 263°
2026-05-06 14:23 39.42181 2.61195 4406 ft 284 kts 263°
2026-05-06 14:23 39.41961 2.58760 4272 ft 262 kts 263°
2026-05-06 14:23 39.41757 2.56509 4194 ft 241 kts 263°
2026-05-06 14:23 39.41572 2.54450 4131 ft 219 kts 263°
2026-05-06 14:24 39.41443 2.52582 4076 ft 202 kts 274°
2026-05-06 14:24 39.41824 2.50864 4242 ft 198 kts 302°
2026-05-06 14:24 39.42773 2.49617 4807 ft 195 kts 330°
2026-05-06 14:24 39.44033 2.49113 5625 ft 189 kts 357°
2026-05-06 14:25 39.45332 2.49406 6231 ft 196 kts 23°
2026-05-06 14:25 39.46445 2.50446 6512 ft 202 kts 50°
2026-05-06 14:25 39.47107 2.52041 6594 ft 198 kts 79°
2026-05-06 14:25 39.47176 2.53786 6768 ft 205 kts 90°
2026-05-06 14:26 39.47467 2.55618 6288 ft 214 kts 65°
2026-05-06 14:26 39.48153 2.57308 5799 ft 212 kts 61°
2026-05-06 14:26 39.48844 2.58953 5502 ft 204 kts 59°
2026-05-06 14:26 39.49616 2.60449 5199 ft 196 kts 56°
2026-05-06 14:27 39.50351 2.61905 4900 ft 191 kts 57°
2026-05-06 14:27 39.51050 2.63354 4603 ft 188 kts 58°
2026-05-06 14:27 39.51736 2.64791 4288 ft 187 kts 58°
2026-05-06 14:27 39.52414 2.66220 3988 ft 186 kts 58°
2026-05-06 14:28 39.53085 2.67633 3653 ft 184 kts 58°
2026-05-06 14:28 39.53773 2.69024 2913 ft 181 kts 52°
2026-05-06 14:28 39.54754 2.69983 2335 ft 173 kts 20°
2026-05-06 14:28 39.55913 2.70025 1836 ft 167 kts 349°
2026-05-06 14:29 39.56836 2.69276 1710 ft 156 kts 303°
2026-05-06 14:29 39.57141 2.67953 1709 ft 153 kts 277°
2026-05-06 14:29 39.57131 2.66585 1703 ft 152 kts 264°
2026-05-06 14:29 39.56924 2.65245 1708 ft 152 kts 251°
2026-05-06 14:30 39.56551 2.63968 1706 ft 152 kts 248°
2026-05-06 14:30 39.56132 2.62736 1705 ft 152 kts 240°
2026-05-06 14:30 39.55595 2.61559 1710 ft 152 kts 238°
2026-05-06 14:30 39.55043 2.60394 1706 ft 152 kts 238°
2026-05-06 14:31 39.54489 2.59230 1706 ft 152 kts 238°
2026-05-06 14:31 39.53935 2.58066 1711 ft 152 kts 238°
2026-05-06 14:31 39.53384 2.56906 1709 ft 151 kts 238°
2026-05-06 14:31 39.52832 2.55743 1705 ft 151 kts 238°
2026-05-06 14:32 39.52245 2.54615 1703 ft 151 kts 225°
2026-05-06 14:32 39.51353 2.54008 1702 ft 145 kts 187°
2026-05-06 14:32 39.50385 2.54240 1707 ft 143 kts 149°
2026-05-06 14:32 39.49733 2.55183 1708 ft 143 kts 112°
2026-05-06 14:33 39.49644 2.56440 1706 ft 142 kts 80°
2026-05-06 14:33 39.49806 2.57705 1706 ft 143 kts 81°
2026-05-06 14:33 39.49964 2.58973 1708 ft 143 kts 81°
2026-05-06 14:33 39.50120 2.60239 1706 ft 143 kts 81°
2026-05-06 14:34 39.50288 2.61505 1717 ft 143 kts 75°
2026-05-06 14:34 39.50750 2.62618 1531 ft 143 kts 59°
2026-05-06 14:34 39.51252 2.63722 1356 ft 142 kts 59°
2026-05-06 14:34 39.51760 2.64816 1162 ft 141 kts 59°
2026-05-06 14:35 39.52268 2.65901 978 ft 140 kts 59°
2026-05-06 14:35 39.52773 2.66971 792 ft 139 kts 59°
2026-05-06 14:35 39.53275 2.68032 622 ft 138 kts 59°
2026-05-06 14:35 39.53771 2.69079 419 ft 134 kts 59°
2026-05-06 14:36 39.54257 2.70103 254 ft 132 kts 60°
2026-05-06 14:36 39.54743 2.71117 71 ft 132 kts 60°
2026-05-06 14:36 39.55183 2.72045 30 ft 99 kts 61°
2026-05-06 14:36 39.55381 2.72471 30 ft 15 kts 57°
2026-05-06 14:37 39.55436 2.72587 30 ft 19 kts 58°
2026-05-06 14:37 39.55501 2.72764 30 ft 21 kts 94°
2026-05-06 14:37 39.55432 2.72928 30 ft 20 kts 124°
2026-05-06 14:37 39.55419 2.72953 30 ft 0 kts 124°
2026-05-06 14:39 39.55417 2.72954 30 ft 1 kts 136°
2026-05-06 14:40 39.55382 2.72978 30 ft 11 kts 150°
2026-05-06 14:40 39.55295 2.73041 30 ft 13 kts 151°
2026-05-06 14:40 39.55261 2.73046 30 ft 2 kts 185°
2026-05-06 14:40 39.55228 2.73037 30 ft 8 kts 192°
2026-05-06 14:41 39.55178 2.73019 30 ft 7 kts 196°
2026-05-06 14:41 39.55160 2.73012 30 ft 0 kts 196°